Birmingham, AL

7:14 PM CST on February 05, 2016 (GMT -0600)
Birmingham International

Weather History for KBHM - November, 2011

Change the Weather History Date:

Monday, November 7, 2011

  Actual Average Record
Temperature  
Mean Temperature 65 °F 57 °F  
Max Temperature 75 °F 69 °F 82 °F (2005)
Min Temperature 54 °F 46 °F 24 °F (1967)
Degree Days  
Heating Degree Days 0 9  
Month to date heating degree days 60 55  
Since 1 July heating degree days 216 182  
Growing Degree Days 15 (Base 50)    
Moisture  
Dew Point 49 °F    
Average Humidity 57    
Maximum Humidity 77    
Minimum Humidity 36    
Precipitation  
Precipitation 0.00 in 0.14 in 1.86 in (1995)
Month to date precipitation 0.21 0.95  
Year to date precipitation 46.92 45.37  
Snow  
Snow 0.00 in 0.00 in - ()
Month to date snowfall 0.0 0.0  
Since 1 July snowfall 0.0 0.0  
Since 1 September snowfall 0.0 0.0  
Snow Depth 0.00 in    
Sea Level Pressure  
Sea Level Pressure 30.28 in    
Wind  
Wind Speed 5 mph (ESE)    
Max Wind Speed 13 mph    
Max Gust Speed 18 mph    
Visibility 10 miles    
Events      
T = Trace of Precipitation, MM = Missing Value Source: NWS Daily Summary

Daily Weather History Graph

Daily Weather History Graph

Search for Another Location

Airport or City:

Trip Planner

Search our weather history database for the weather conditions in past years. The results will help you decide how hot, cold, wet, or windy it might be!

Date:

Astronomy

Nov. 07, 2011 Rise Set
Actual Time 6:11 AM CST 4:49 PM CST
Civil Twilight 5:45 AM CST 5:15 PM CST
Nautical Twilight 5:15 AM CST 5:45 PM CST
Astronomical Twilight 4:46 AM CST 6:14 PM CST
Moon 2:55 PM CST (11/7) 3:19 AM CST (11/7)
Length of Visible Light 11h 30m
Length of Day
10h 38m
Waxing Gibbous, 92% of the Moon is Illuminated
Nov 7
Waxing Gibbous
Nov 10
Full
Nov 18
Last Quarter
Nov 25
New
Dec 2
First Quarter

Hourly Weather History & Observations

Time (CST) Temp. Dew Point Humidity Pressure Visibility Wind Dir Wind Speed Gust Speed Precip Events Conditions
12:53 AM 57.9 °F 48.9 °F 72% 30.30 in 10.0 mi ESE 6.9 mph - N/A   Clear
1:53 AM 57.2 °F 48.2 °F 72% 30.30 in 10.0 mi ESE 6.9 mph - N/A   Clear
2:53 AM 57.0 °F 48.9 °F 74% 30.30 in 10.0 mi East 3.5 mph - N/A   Clear
3:53 AM 55.9 °F 48.9 °F 77% 30.30 in 10.0 mi Variable 4.6 mph - N/A   Clear
4:53 AM 55.9 °F 48.0 °F 75% 30.31 in 10.0 mi East 5.8 mph - N/A   Clear
5:53 AM 55.0 °F 48.0 °F 77% 30.32 in 10.0 mi East 3.5 mph - N/A   Clear
6:53 AM 55.0 °F 48.9 °F 80% 30.34 in 10.0 mi Variable 3.5 mph - N/A   Clear
7:53 AM 59.0 °F 48.9 °F 69% 30.35 in 10.0 mi ESE 5.8 mph - N/A   Clear
8:53 AM 62.1 °F 50.0 °F 65% 30.35 in 10.0 mi Variable 6.9 mph - N/A   Clear
9:53 AM 66.0 °F 51.1 °F 59% 30.35 in 10.0 mi SE 10.4 mph - N/A   Clear
10:53 AM 71.1 °F 51.1 °F 49% 30.33 in 10.0 mi Variable 6.9 mph - N/A   Clear
11:53 AM 72.0 °F 51.1 °F 48% 30.29 in 10.0 mi Variable 5.8 mph - N/A   Clear
12:53 PM 72.0 °F 48.9 °F 44% 30.26 in 10.0 mi SSE 4.6 mph - N/A   Scattered Clouds
1:53 PM 75.0 °F 46.9 °F 37% 30.24 in 10.0 mi SE 10.4 mph 17.3 mph N/A   Overcast
2:53 PM 73.4 °F 46.4 °F 38% 30.24 in 10.0 mi SE 5.8 mph - N/A   Scattered Clouds
3:53 PM 72.0 °F 46.9 °F 41% 30.23 in 10.0 mi South 8.1 mph - N/A   Scattered Clouds
4:53 PM 69.8 °F 46.4 °F 43% 30.24 in 10.0 mi Calm Calm - N/A   Scattered Clouds
5:53 PM 64.0 °F 48.9 °F 58% 30.23 in 10.0 mi Calm Calm - N/A   Partly Cloudy
6:53 PM 57.9 °F 50.0 °F 75% 30.25 in 10.0 mi Calm Calm - N/A   Scattered Clouds
7:53 PM 59.0 °F 48.9 °F 69% 30.25 in 10.0 mi Calm Calm - N/A   Overcast
8:53 PM 60.1 °F 51.1 °F 72% 30.25 in 10.0 mi Calm Calm - N/A   Overcast
9:53 PM 62.1 °F 48.9 °F 62% 30.22 in 10.0 mi Calm Calm - N/A   Clear
10:53 PM 63.0 °F 48.9 °F 60% 30.22 in 10.0 mi SE 5.8 mph - N/A   Overcast
11:53 PM 63.0 °F 48.9 °F 60% 30.19 in 10.0 mi ESE 5.8 mph - N/A   Partly Cloudy